Hickory, NC

9:24 PM EDT on April 24, 2018 (GMT -0400)
Hickory Regional

Weather History for KHKY - January, 2013

Change the Weather History Date:

Tuesday, January 1, 2013

  Actual Average Record
Temperature  
Mean Temperature 44 °F -  
Max Temperature 48 °F 51 °F 73 °F (1985)
Min Temperature 39 °F 33 °F 13 °F (1977)
Degree Days  
Heating Degree Days 22    
Moisture  
Dew Point 42 °F    
Average Humidity 90    
Maximum Humidity 100    
Minimum Humidity 49    
Precipitation  
Precipitation 0.27 in - - ()
Sea Level Pressure  
Sea Level Pressure 29.97 in    
Wind  
Wind Speed 2 mph (WSW)    
Max Wind Speed 8 mph    
Max Gust Speed -    
Visibility 4 miles    
Events Fog , Rain    
Averages and records for this station are not official NWS values.
T = Trace of Precipitation, MM = Missing Value Source: NWS Daily Summary

Daily Weather History Graph

Daily Weather History Graph

Search for Another Location

Airport or City:

Astronomy

Jan. 01, 2013 Rise Set
Actual Time 7:35 AM EST 5:23 PM EST
Civil Twilight 7:07 AM EST 5:51 PM EST
Nautical Twilight 6:35 AM EST 6:23 PM EST
Astronomical Twilight 6:04 AM EST 6:54 PM EST
Moon 9:43 PM EST (1/1) 9:55 AM EST (1/1)
Length of Visible Light 10h 44m
Length of Day
9h 47m
Waning Gibbous, 83% of the Moon is Illuminated
Jan 1
Waning Gibbous
Jan 4
Last Quarter
Jan 11
New
Jan 18
First Quarter
Jan 26
Full

Hourly Weather History & Observations

Time (EST) Temp. Windchill Dew Point Humidity Pressure Visibility Wind Dir Wind Speed Gust Speed Precip Events Conditions
12:53 AM 44.1 °F 42.5 °F 26.1 °F 49% 30.04 in 10.0 mi South 3.5 mph - N/A   Overcast
1:53 AM 43.0 °F - 30.0 °F 60% 30.01 in 10.0 mi Calm Calm - 0.00 in Rain Light Rain
2:53 AM 43.0 °F - 30.0 °F 60% 30.01 in 10.0 mi Calm Calm - 0.00 in   Mostly Cloudy
3:53 AM 41.0 °F - 33.1 °F 73% 30.01 in 10.0 mi Calm Calm - N/A   Overcast
4:53 AM 41.0 °F 39.0 °F 33.1 °F 73% 30.02 in 10.0 mi North 3.5 mph - N/A   Overcast
7:53 AM 39.0 °F - 35.1 °F 86% 30.04 in 8.0 mi Calm Calm - 0.02 in Rain Light Rain
8:53 AM 39.9 °F - 36.0 °F 86% 30.05 in 9.0 mi Calm Calm - 0.01 in Rain Light Rain
10:53 AM 43.0 °F 39.5 °F 37.9 °F 82% 30.02 in 10.0 mi South 5.8 mph - 0.00 in   Overcast
11:53 AM 45.0 °F 40.6 °F 39.0 °F 80% 29.99 in 10.0 mi South 8.1 mph - 0.00 in Rain Light Rain
12:53 PM 46.0 °F 43.9 °F 43.0 °F 89% 29.98 in 6.0 mi SSW 4.6 mph - 0.03 in Rain Light Rain
2:53 PM 46.9 °F - 44.1 °F 90% 29.94 in 8.0 mi SSW 6.9 mph - 0.02 in Rain Light Rain
3:21 PM 46.4 °F 45.2 °F 44.6 °F 93% 29.95 in 4.0 mi WSW 3.5 mph - 0.01 in Rain Light Rain
3:24 PM 46.4 °F 45.2 °F 44.6 °F 93% 29.95 in 2.0 mi West 3.5 mph - 0.01 in Rain Light Rain
3:39 PM 46.4 °F 45.2 °F 44.6 °F 93% 29.95 in 2.0 mi WNW 3.5 mph - 0.01 in Rain Light Rain
3:53 PM 46.0 °F 44.8 °F 44.1 °F 93% 29.94 in 2.0 mi WNW 3.5 mph - 0.01 in Rain Light Rain
4:00 PM 46.4 °F - 44.6 °F 93% 29.96 in 5.0 mi Calm Calm - 0.00 in Rain Light Rain
4:04 PM 46.4 °F - 44.6 °F 93% 29.96 in 2.0 mi Calm Calm - 0.01 in Rain Light Rain
4:53 PM 46.0 °F - 44.1 °F 93% 29.95 in 2.0 mi Calm Calm - 0.02 in Rain Light Rain
5:07 PM 46.4 °F - 44.6 °F 93% 29.97 in 1.5 mi Calm Calm - 0.00 in Rain Light Rain
5:19 PM 46.4 °F - 44.6 °F 93% 29.97 in 2.5 mi Calm Calm - 0.01 in Rain Light Rain
5:50 PM 46.4 °F - 44.6 °F 93% 29.96 in 1.8 mi Calm Calm - 0.03 in Rain Light Rain
5:53 PM 46.0 °F - 44.1 °F 93% 29.94 in 2.0 mi Calm Calm - 0.03 in Rain Light Rain
6:37 PM 46.4 °F - 44.6 °F 93% 29.95 in 3.0 mi Calm Calm - 0.02 in Rain Light Rain
6:46 PM 46.4 °F - 44.6 °F 93% 29.95 in 2.5 mi Calm Calm - 0.02 in Rain Light Rain
6:53 PM 46.9 °F - 46.0 °F 97% 29.94 in 3.0 mi Calm Calm - 0.02 in Rain Light Rain
7:05 PM 46.4 °F - 44.6 °F 93% 29.96 in 2.0 mi Calm Calm - 0.00 in Rain Light Rain
7:17 PM 48.2 °F - 46.4 °F 93% 29.96 in 5.0 mi Calm Calm - 0.00 in   Overcast
7:20 PM 46.4 °F - 44.6 °F 93% 29.96 in 1.8 mi Calm Calm - 0.00 in   Overcast
7:30 PM 46.4 °F - 44.6 °F 93% 29.97 in 0.5 mi Calm Calm - 0.00 in Fog , Rain Light Rain
7:53 PM 46.0 °F - 44.1 °F 93% 29.96 in 0.5 mi Calm Calm - 0.01 in Fog , Rain Light Rain
8:07 PM 46.4 °F - 44.6 °F 93% 29.98 in 1.8 mi Calm Calm - 0.00 in Rain Light Rain
8:14 PM 46.4 °F - 44.6 °F 93% 29.98 in 1.8 mi Calm Calm - 0.01 in Rain Light Rain
8:26 PM 46.4 °F - 44.6 °F 93% 29.96 in 0.5 mi Calm Calm - 0.01 in Fog , Rain Light Rain
8:53 PM 46.0 °F - 45.0 °F 96% 29.93 in 0.5 mi Calm Calm - 0.01 in Fog , Rain Light Rain
9:05 PM 46.4 °F - 46.4 °F 100% 29.95 in 1.0 mi Calm Calm - 0.00 in Rain Light Rain
9:16 PM 46.4 °F - 46.4 °F 100% 29.95 in 1.0 mi Calm Calm - 0.00 in   Overcast
9:23 PM 46.4 °F 45.2 °F 46.4 °F 100% 29.95 in 0.8 mi North 3.5 mph - 0.00 in   Overcast
9:53 PM 46.0 °F - 45.0 °F 96% 29.95 in 0.5 mi Calm Calm - 0.01 in Fog , Rain Light Rain
10:41 PM 44.6 °F 43.1 °F 44.6 °F 100% 29.94 in 0.2 mi ENE 3.5 mph - 0.04 in Fog , Rain Light Rain
10:51 PM 44.6 °F - 44.6 °F 100% 29.95 in 0.5 mi Calm Calm - 0.05 in Fog , Rain Light Rain
10:53 PM 45.0 °F - 44.1 °F 97% 29.93 in 0.5 mi Calm Calm - 0.05 in Fog , Rain Light Rain
11:03 PM 44.6 °F - 44.6 °F 100% 29.95 in 0.5 mi Calm Calm - 0.01 in Fog , Rain Light Rain
11:12 PM 46.4 °F - 44.6 °F 93% 29.95 in 0.5 mi Calm Calm - 0.02 in Fog , Rain Light Rain
11:22 PM 46.4 °F - 44.6 °F 93% 29.95 in 0.5 mi Calm Calm - 0.03 in Fog , Rain Light Rain
11:53 PM 46.0 °F - 44.1 °F 93% 29.92 in 0.5 mi Calm Calm - 0.03 in Fog Fog